owner,sensor,date,latitude,longitude,vertical_datum,direction_of_sea_water_velocity,sea_water_speed,upward_sea_water_velocity,qcFlag 
ADCP,ioos:station:wmo:42890:1,2012-09-01T00:14:00Z,27.6250,-90.4410,15.2,232.0,23.7,-9999.0,'11111222,11111222,99999999' 
ADCP,ioos:station:wmo:42890:1,2012-09-01T00:34:00Z,27.6250,-90.4410,15.2,230.0,27.3,-9999.0,'11111222,11111222,99999999' 
ADCP,ioos:station:wmo:42890:1,2012-09-01T00:54:00Z,27.6250,-90.4410,15.2,233.0,27.3,-9999.0,'11111222,11111222,99999999' 
ADCP,ioos:station:wmo:42890:1,2012-09-01T01:14:00Z,27.6250,-90.4410,15.2,237.0,24.9,-9999.0,'11111222,11111222,99999999' 
ADCP,ioos:station:wmo:42890:1,2012-09-01T01:34:00Z,27.6250,-90.4410,15.2,237.0,23.9,-9999.0,'11111222,11111222,99999999' 
ADCP,ioos:station:wmo:42890:1,2012-09-01T01:54:00Z,27.6250,-90.4410,15.2,245.0,24.6,-9999.0,'11111222,11111222,99999999' 
ADCP,ioos:station:wmo:42890:1,2012-09-01T02:14:00Z,27.6250,-90.4410,15.2,242.0,22.4,-9999.0,'11111222,11111222,99999999' 
ADCP,ioos:station:wmo:42890:1,2012-09-01T02:34:00Z,27.6250,-90.4410,15.2,246.0,23.9,-9999.0,'11111222,11111222,99999999' 
ADCP,ioos:station:wmo:42890:1,2012-09-01T02:54:00Z,27.6250,-90.4410,15.2,252.0,22.9,-9999.0,'11111222,11111222,99999999' 
ADCP,ioos:station:wmo:42890:1,2012-09-01T03:14:00Z,27.6250,-90.4410,15.2,252.0,20.2,-9999.0,'11111222,11111222,99999999' 
ADCP,ioos:station:wmo:42890:1,2012-09-01T03:34:00Z,27.6250,-90.4410,15.2,256.0,17.4,-9999.0,'11111222,11111222,99999999' 
ADCP,ioos:station:wmo:42890:1,2012-09-01T03:54:00Z,27.6250,-90.4410,15.2,251.0,18.4,-9999.0,'11111222,11111222,99999999' 
ADCP,ioos:station:wmo:42890:1,2012-09-01T04:14:00Z,27.6250,-90.4410,15.2,219.0,10.3,-9999.0,'11111222,11111222,99999999' 
ADCP,ioos:station:wmo:42890:1,2012-09-01T04:34:00Z,27.6250,-90.4410,15.2,230.0,11.9,-9999.0,'11111222,11111222,99999999' 
ADCP,ioos:station:wmo:42890:1,2012-09-01T04:54:00Z,27.6250,-90.4410,15.2,235.0,8.2,-9999.0,'11133222,11111222,99999999' 
ADCP,ioos:station:wmo:42890:1,2012-09-01T05:14:00Z,27.6250,-90.4410,15.2,219.0,8.7,-9999.0,'11133222,11111222,99999999' 
ADCP,ioos:station:wmo:42890:1,2012-09-01T05:34:00Z,27.6250,-90.4410,15.2,240.0,8.3,-9999.0,'11133222,11111222,99999999' 
ADCP,ioos:station:wmo:42890:1,2012-09-01T05:54:00Z,27.6250,-90.4410,15.2,236.0,6.8,-9999.0,'11133222,11111222,99999999' 
ADCP,ioos:station:wmo:42890:1,2012-09-01T06:14:00Z,27.6250,-90.4410,15.2,247.0,7.3,-9999.0,'11133222,11111222,99999999' 
ADCP,ioos:station:wmo:42890:1,2012-09-01T06:34:00Z,27.6250,-90.4410,15.2,221.0,4.0,-9999.0,'11133222,11111222,99999999' 
ADCP,ioos:station:wmo:42890:1,2012-09-01T06:54:00Z,27.6250,-90.4410,15.2,234.0,5.8,-9999.0,'11133222,11111222,99999999' 
ADCP,ioos:station:wmo:42890:1,2012-09-01T07:14:00Z,27.6250,-90.4410,15.2,207.0,5.5,-9999.0,'11133222,11111222,99999999' 
ADCP,ioos:station:wmo:42890:1,2012-09-01T07:34:00Z,27.6250,-90.4410,15.2,198.0,4.4,-9999.0,'11133222,11111222,99999999' 
ADCP,ioos:station:wmo:42890:1,2012-09-01T07:54:00Z,27.6250,-90.4410,15.2,243.0,1.6,-9999.0,'11133222,11111222,99999999' 
ADCP,ioos:station:wmo:42890:1,2012-09-01T08:14:00Z,27.6250,-90.4410,15.2,68.0,7.2,-9999.0,'11133222,11111222,99999999' 
ADCP,ioos:station:wmo:42890:1,2012-09-01T08:34:00Z,27.6250,-90.4410,15.2,84.0,12.9,-9999.0,'11111222,11111222,99999999' 
ADCP,ioos:station:wmo:42890:1,2012-09-01T08:54:00Z,27.6250,-90.4410,15.2,90.0,16.6,-9999.0,'11111222,11111222,99999999' 
ADCP,ioos:station:wmo:42890:1,2012-09-01T09:14:00Z,27.6250,-90.4410,15.2,80.0,21.1,-9999.0,'11111222,11111222,99999999' 
ADCP,ioos:station:wmo:42890:1,2012-09-01T09:34:00Z,27.6250,-90.4410,15.2,80.0,24.3,-9999.0,'11111222,11111222,99999999' 
ADCP,ioos:station:wmo:42890:1,2012-09-01T09:54:00Z,27.6250,-90.4410,15.2,85.0,30.3,-9999.0,'11111222,11111222,99999999' 
ADCP,ioos:station:wmo:42890:1,2012-09-01T10:14:00Z,27.6250,-90.4410,15.2,94.0,32.8,-9999.0,'11111222,11111222,99999999' 
ADCP,ioos:station:wmo:42890:1,2012-09-01T10:34:00Z,27.6250,-90.4410,15.2,99.0,31.2,-9999.0,'11111222,11111222,99999999' 
ADCP,ioos:station:wmo:42890:1,2012-09-01T10:54:00Z,27.6250,-90.4410,15.2,100.0,29.7,-9999.0,'11111222,11111222,99999999' 
ADCP,ioos:station:wmo:42890:1,2012-09-01T11:14:00Z,27.6250,-90.4410,15.2,104.0,28.3,-9999.0,'11111222,11111222,99999999' 
ADCP,ioos:station:wmo:42890:1,2012-09-01T11:34:00Z,27.6250,-90.4410,15.2,111.0,29.6,-9999.0,'11111222,11111222,99999999' 
ADCP,ioos:station:wmo:42890:1,2012-09-01T11:54:00Z,27.6250,-90.4410,15.2,115.0,30.3,-9999.0,'11111222,11111222,99999999' 
ADCP,ioos:station:wmo:42890:1,2012-09-01T12:14:00Z,27.6250,-90.4410,15.2,118.0,32.4,-9999.0,'11111222,11111222,99999999' 
ADCP,ioos:station:wmo:42890:1,2012-09-01T12:34:00Z,27.6250,-90.4410,15.2,123.0,31.3,-9999.0,'11111222,11111222,99999999' 
ADCP,ioos:station:wmo:42890:1,2012-09-01T12:54:00Z,27.6250,-90.4410,15.2,125.0,31.3,-9999.0,'11111222,11111222,99999999' 
ADCP,ioos:station:wmo:42890:1,2012-09-01T13:14:00Z,27.6250,-90.4410,15.2,124.0,31.2,-9999.0,'11111222,11111222,99999999' 
ADCP,ioos:station:wmo:42890:1,2012-09-01T13:34:00Z,27.6250,-90.4410,15.2,129.0,31.0,-9999.0,'11111222,11111222,99999999' 
ADCP,ioos:station:wmo:42890:1,2012-09-01T13:54:00Z,27.6250,-90.4410,15.2,142.0,24.2,-9999.0,'11111222,11111222,99999999' 
ADCP,ioos:station:wmo:42890:1,2012-09-01T14:14:00Z,27.6250,-90.4410,15.2,141.0,29.2,-9999.0,'11111222,11111222,99999999' 
ADCP,ioos:station:wmo:42890:1,2012-09-01T14:34:00Z,27.6250,-90.4410,15.2,160.0,20.7,-9999.0,'11111222,11111222,99999999' 
ADCP,ioos:station:wmo:42890:1,2012-09-01T14:54:00Z,27.6250,-90.4410,15.2,173.0,20.4,-9999.0,'11111222,11111222,99999999' 
ADCP,ioos:station:wmo:42890:1,2012-09-01T15:14:00Z,27.6250,-90.4410,15.2,180.0,23.8,-9999.0,'11111222,11111222,99999999' 
ADCP,ioos:station:wmo:42890:1,2012-09-01T15:34:00Z,27.6250,-90.4410,15.2,182.0,24.3,-9999.0,'11111222,11111222,99999999' 
ADCP,ioos:station:wmo:42890:1,2012-09-01T15:54:00Z,27.6250,-90.4410,15.2,175.0,26.8,-9999.0,'11111222,11111222,99999999' 
ADCP,ioos:station:wmo:42890:1,2012-09-01T16:14:00Z,27.6250,-90.4410,15.2,181.0,26.4,-9999.0,'11111222,11111222,99999999' 
ADCP,ioos:station:wmo:42890:1,2012-09-01T16:34:00Z,27.6250,-90.4410,15.2,170.0,25.9,-9999.0,'11111222,11111222,99999999' 
ADCP,ioos:station:wmo:42890:1,2012-09-01T16:54:00Z,27.6250,-90.4410,15.2,162.0,26.9,-9999.0,'11111222,11111222,99999999' 
ADCP,ioos:station:wmo:42890:1,2012-09-01T17:14:00Z,27.6250,-90.4410,15.2,161.0,27.8,-9999.0,'11111222,11111222,99999999' 
ADCP,ioos:station:wmo:42890:1,2012-09-01T17:34:00Z,27.6250,-90.4410,15.2,156.0,26.0,-9999.0,'11111222,11111222,99999999' 
ADCP,ioos:station:wmo:42890:1,2012-09-01T17:54:00Z,27.6250,-90.4410,15.2,126.0,21.3,-9999.0,'11111222,11111222,99999999' 
ADCP,ioos:station:wmo:42890:1,2012-09-01T18:14:00Z,27.6250,-90.4410,15.2,124.0,23.9,-9999.0,'11111222,11111222,99999999' 
ADCP,ioos:station:wmo:42890:1,2012-09-01T18:34:00Z,27.6250,-90.4410,15.2,135.0,17.5,-9999.0,'11111222,11111222,99999999' 
ADCP,ioos:station:wmo:42890:1,2012-09-01T18:54:00Z,27.6250,-90.4410,15.2,121.0,25.6,-9999.0,'11111222,11111222,99999999' 
ADCP,ioos:station:wmo:42890:1,2012-09-01T19:14:00Z,27.6250,-90.4410,15.2,113.0,28.4,-9999.0,'11111222,11111222,99999999' 
ADCP,ioos:station:wmo:42890:1,2012-09-01T19:34:00Z,27.6250,-90.4410,15.2,117.0,26.8,-9999.0,'11111222,11111222,99999999' 
ADCP,ioos:station:wmo:42890:1,2012-09-01T19:54:00Z,27.6250,-90.4410,15.2,207.0,28.9,-9999.0,'11111222,11111222,99999999' 
ADCP,ioos:station:wmo:42890:1,2012-09-01T20:14:00Z,27.6250,-90.4410,15.2,230.0,43.4,-9999.0,'11111222,11111222,99999999' 
ADCP,ioos:station:wmo:42890:1,2012-09-01T20:34:00Z,27.6250,-90.4410,15.2,211.0,35.8,-9999.0,'11111222,11111222,99999999' 
ADCP,ioos:station:wmo:42890:1,2012-09-01T20:54:00Z,27.6250,-90.4410,15.2,185.0,31.9,-9999.0,'11111222,11111222,99999999' 
ADCP,ioos:station:wmo:42890:1,2012-09-01T21:14:00Z,27.6250,-90.4410,15.2,166.0,34.3,-9999.0,'11111222,11111222,99999999' 
ADCP,ioos:station:wmo:42890:1,2012-09-01T21:34:00Z,27.6250,-90.4410,15.2,165.0,35.0,-9999.0,'11111222,11111222,99999999' 
ADCP,ioos:station:wmo:42890:1,2012-09-01T21:54:00Z,27.6250,-90.4410,15.2,158.0,34.7,-9999.0,'11111222,11111222,99999999' 
ADCP,ioos:station:wmo:42890:1,2012-09-01T22:14:00Z,27.6250,-90.4410,15.2,157.0,34.5,-9999.0,'11111222,11111222,99999999' 
ADCP,ioos:station:wmo:42890:1,2012-09-01T22:34:00Z,27.6250,-90.4410,15.2,136.0,34.9,-9999.0,'11111222,11111222,99999999' 
ADCP,ioos:station:wmo:42890:1,2012-09-01T22:54:00Z,27.6250,-90.4410,15.2,135.0,34.2,-9999.0,'11111222,11111222,99999999' 
ADCP,ioos:station:wmo:42890:1,2012-09-01T23:14:00Z,27.6250,-90.4410,15.2,135.0,34.7,-9999.0,'11111222,11111222,99999999' 
ADCP,ioos:station:wmo:42890:1,2012-09-01T23:34:00Z,27.6250,-90.4410,15.2,141.0,36.6,-9999.0,'11111222,11111222,99999999' 
ADCP,ioos:station:wmo:42890:1,2012-09-01T23:54:00Z,27.6250,-90.4410,15.2,156.0,34.4,-9999.0,'11111222,11111222,99999999' 
ADCP,ioos:station:wmo:42890:1,2012-09-02T00:14:00Z,27.6250,-90.4410,15.2,161.0,37.6,-9999.0,'11111222,11111222,99999999' 
ADCP,ioos:station:wmo:42890:1,2012-09-02T00:34:00Z,27.6250,-90.4410,15.2,151.0,37.6,-9999.0,'11111222,11111222,99999999' 
ADCP,ioos:station:wmo:42890:1,2012-09-02T00:54:00Z,27.6250,-90.4410,15.2,146.0,36.3,-9999.0,'11111222,11111222,99999999' 
ADCP,ioos:station:wmo:42890:1,2012-09-02T01:14:00Z,27.6250,-90.4410,15.2,125.0,36.7,-9999.0,'11111222,11111222,99999999' 
ADCP,ioos:station:wmo:42890:1,2012-09-02T01:34:00Z,27.6250,-90.4410,15.2,114.0,39.5,-9999.0,'11111222,11111222,99999999' 
ADCP,ioos:station:wmo:42890:1,2012-09-02T01:54:00Z,27.6250,-90.4410,15.2,110.0,31.8,-9999.0,'11111222,11111222,99999999' 
ADCP,ioos:station:wmo:42890:1,2012-09-02T02:14:00Z,27.6250,-90.4410,15.2,112.0,42.5,-9999.0,'11111222,11111222,99999999' 
ADCP,ioos:station:wmo:42890:1,2012-09-02T02:34:00Z,27.6250,-90.4410,15.2,108.0,39.4,-9999.0,'11111222,11111222,99999999' 
ADCP,ioos:station:wmo:42890:1,2012-09-02T02:54:00Z,27.6250,-90.4410,15.2,112.0,42.2,-9999.0,'11111222,11111222,99999999' 
ADCP,ioos:station:wmo:42890:1,2012-09-02T03:14:00Z,27.6250,-90.4410,15.2,108.0,44.8,-9999.0,'11111222,11111222,99999999' 
ADCP,ioos:station:wmo:42890:1,2012-09-02T03:34:00Z,27.6250,-90.4410,15.2,110.0,42.9,-9999.0,'11111222,11111222,99999999' 
ADCP,ioos:station:wmo:42890:1,2012-09-02T03:54:00Z,27.6250,-90.4410,15.2,136.0,35.2,-9999.0,'11111222,11111222,99999999' 
ADCP,ioos:station:wmo:42890:1,2012-09-02T04:14:00Z,27.6250,-90.4410,15.2,133.0,37.2,-9999.0,'11111222,11111222,99999999' 
ADCP,ioos:station:wmo:42890:1,2012-09-02T04:34:00Z,27.6250,-90.4410,15.2,132.0,38.0,-9999.0,'11111222,11111222,99999999' 
ADCP,ioos:station:wmo:42890:1,2012-09-02T04:54:00Z,27.6250,-90.4410,15.2,130.0,39.4,-9999.0,'11111222,11111222,99999999' 
ADCP,ioos:station:wmo:42890:1,2012-09-02T05:14:00Z,27.6250,-90.4410,15.2,127.0,40.5,-9999.0,'11111222,11111222,99999999' 
ADCP,ioos:station:wmo:42890:1,2012-09-02T05:34:00Z,27.6250,-90.4410,15.2,124.0,40.9,-9999.0,'11111222,11111222,99999999' 
ADCP,ioos:station:wmo:42890:1,2012-09-02T05:54:00Z,27.6250,-90.4410,15.2,117.0,45.4,-9999.0,'11111222,11111222,99999999' 
ADCP,ioos:station:wmo:42890:1,2012-09-02T06:14:00Z,27.6250,-90.4410,15.2,115.0,48.0,-9999.0,'11111222,11111222,99999999' 
ADCP,ioos:station:wmo:42890:1,2012-09-02T06:34:00Z,27.6250,-90.4410,15.2,113.0,48.5,-9999.0,'11111222,11111222,99999999' 
ADCP,ioos:station:wmo:42890:1,2012-09-02T06:54:00Z,27.6250,-90.4410,15.2,112.0,47.4,-9999.0,'11111222,11111222,99999999' 
ADCP,ioos:station:wmo:42890:1,2012-09-02T07:14:00Z,27.6250,-90.4410,15.2,109.0,48.2,-9999.0,'11111222,11111222,99999999' 
ADCP,ioos:station:wmo:42890:1,2012-09-02T07:34:00Z,27.6250,-90.4410,15.2,109.0,49.2,-9999.0,'11111222,11111222,99999999' 
ADCP,ioos:station:wmo:42890:1,2012-09-02T07:54:00Z,27.6250,-90.4410,15.2,108.0,51.9,-9999.0,'11111222,11111222,99999999' 
ADCP,ioos:station:wmo:42890:1,2012-09-02T08:14:00Z,27.6250,-90.4410,15.2,108.0,51.5,-9999.0,'11111222,11111222,99999999' 
ADCP,ioos:station:wmo:42890:1,2012-09-02T08:34:00Z,27.6250,-90.4410,15.2,104.0,55.8,-9999.0,'11111222,11111222,99999999' 
ADCP,ioos:station:wmo:42890:1,2012-09-02T08:54:00Z,27.6250,-90.4410,15.2,106.0,51.1,-9999.0,'11111222,11111222,99999999' 
ADCP,ioos:station:wmo:42890:1,2012-09-02T09:14:00Z,27.6250,-90.4410,15.2,110.0,45.8,-9999.0,'11111222,11111222,99999999' 
ADCP,ioos:station:wmo:42890:1,2012-09-02T09:34:00Z,27.6250,-90.4410,15.2,99.0,52.7,-9999.0,'11111222,11111222,99999999' 
ADCP,ioos:station:wmo:42890:1,2012-09-02T09:54:00Z,27.6250,-90.4410,15.2,102.0,49.5,-9999.0,'11111222,11111222,99999999' 
ADCP,ioos:station:wmo:42890:1,2012-09-02T10:14:00Z,27.6250,-90.4410,15.2,102.0,50.9,-9999.0,'11111222,11111222,99999999' 
ADCP,ioos:station:wmo:42890:1,2012-09-02T10:34:00Z,27.6250,-90.4410,15.2,100.0,49.7,-9999.0,'11111222,11111222,99999999' 
ADCP,ioos:station:wmo:42890:1,2012-09-02T10:54:00Z,27.6250,-90.4410,15.2,102.0,50.3,-9999.0,'11111222,11111222,99999999' 
ADCP,ioos:station:wmo:42890:1,2012-09-02T11:14:00Z,27.6250,-90.4410,15.2,102.0,50.6,-9999.0,'11111222,11111222,99999999' 
ADCP,ioos:station:wmo:42890:1,2012-09-02T11:34:00Z,27.6250,-90.4410,15.2,99.0,54.1,-9999.0,'11111222,11111222,99999999' 
ADCP,ioos:station:wmo:42890:1,2012-09-02T11:54:00Z,27.6250,-90.4410,15.2,101.0,54.2,-9999.0,'11111222,11111222,99999999' 
ADCP,ioos:station:wmo:42890:1,2012-09-02T12:14:00Z,27.6250,-90.4410,15.2,99.0,54.4,-9999.0,'11111222,11111222,99999999' 
ADCP,ioos:station:wmo:42890:1,2012-09-02T12:34:00Z,27.6250,-90.4410,15.2,101.0,51.7,-9999.0,'11111222,11111222,99999999' 
ADCP,ioos:station:wmo:42890:1,2012-09-02T12:54:00Z,27.6250,-90.4410,15.2,105.0,46.6,-9999.0,'11111222,11111222,99999999' 
ADCP,ioos:station:wmo:42890:1,2012-09-02T13:14:00Z,27.6250,-90.4410,15.2,110.0,46.1,-9999.0,'11111222,11111222,99999999' 
ADCP,ioos:station:wmo:42890:1,2012-09-02T13:34:00Z,27.6250,-90.4410,15.2,110.0,49.3,-9999.0,'11111222,11111222,99999999' 
ADCP,ioos:station:wmo:42890:1,2012-09-02T13:54:00Z,27.6250,-90.4410,15.2,111.0,49.1,-9999.0,'11111222,11111222,99999999' 
ADCP,ioos:station:wmo:42890:1,2012-09-02T14:14:00Z,27.6250,-90.4410,15.2,103.0,63.7,-9999.0,'11111222,11111222,99999999' 
ADCP,ioos:station:wmo:42890:1,2012-09-02T14:34:00Z,27.6250,-90.4410,15.2,111.0,53.3,-9999.0,'11111222,11111222,99999999' 
ADCP,ioos:station:wmo:42890:1,2012-09-02T14:54:00Z,27.6250,-90.4410,15.2,115.0,51.9,-9999.0,'11111222,11111222,99999999' 
ADCP,ioos:station:wmo:42890:1,2012-09-02T15:14:00Z,27.6250,-90.4410,15.2,117.0,53.2,-9999.0,'11111222,11111222,99999999' 
ADCP,ioos:station:wmo:42890:1,2012-09-02T15:34:00Z,27.6250,-90.4410,15.2,118.0,49.2,-9999.0,'11111222,11111222,99999999' 
ADCP,ioos:station:wmo:42890:1,2012-09-02T15:54:00Z,27.6250,-90.4410,15.2,111.0,49.6,-9999.0,'11111222,11111222,99999999' 
ADCP,ioos:station:wmo:42890:1,2012-09-02T16:14:00Z,27.6250,-90.4410,15.2,105.0,51.0,-9999.0,'11111222,11111222,99999999' 
ADCP,ioos:station:wmo:42890:1,2012-09-02T16:34:00Z,27.6250,-90.4410,15.2,104.0,51.7,-9999.0,'11111222,11111222,99999999' 
ADCP,ioos:station:wmo:42890:1,2012-09-02T16:54:00Z,27.6250,-90.4410,15.2,105.0,47.8,-9999.0,'11111222,11111222,99999999' 
ADCP,ioos:station:wmo:42890:1,2012-09-02T17:14:00Z,27.6250,-90.4410,15.2,106.0,48.0,-9999.0,'11111222,11111222,99999999' 
ADCP,ioos:station:wmo:42890:1,2012-09-02T17:34:00Z,27.6250,-90.4410,15.2,108.0,41.9,-9999.0,'11111222,11111222,99999999' 
ADCP,ioos:station:wmo:42890:1,2012-09-02T17:54:00Z,27.6250,-90.4410,15.2,108.0,44.1,-9999.0,'11111222,11111222,99999999' 
ADCP,ioos:station:wmo:42890:1,2012-09-02T18:14:00Z,27.6250,-90.4410,15.2,108.0,43.9,-9999.0,'11111222,11111222,99999999' 
ADCP,ioos:station:wmo:42890:1,2012-09-02T18:34:00Z,27.6250,-90.4410,15.2,109.0,44.6,-9999.0,'11111222,11111222,99999999' 
ADCP,ioos:station:wmo:42890:1,2012-09-02T18:54:00Z,27.6250,-90.4410,15.2,108.0,44.9,-9999.0,'11111222,11111222,99999999' 
ADCP,ioos:station:wmo:42890:1,2012-09-02T19:14:00Z,27.6250,-90.4410,15.2,110.0,42.6,-9999.0,'11111222,11111222,99999999' 
ADCP,ioos:station:wmo:42890:1,2012-09-02T19:34:00Z,27.6250,-90.4410,15.2,111.0,47.0,-9999.0,'11111222,11111222,99999999' 
ADCP,ioos:station:wmo:42890:1,2012-09-02T19:54:00Z,27.6250,-90.4410,15.2,111.0,46.8,-9999.0,'11111222,11111222,99999999' 
ADCP,ioos:station:wmo:42890:1,2012-09-02T20:14:00Z,27.6250,-90.4410,15.2,111.0,49.1,-9999.0,'11111222,11111222,99999999' 
ADCP,ioos:station:wmo:42890:1,2012-09-02T20:34:00Z,27.6250,-90.4410,15.2,109.0,51.5,-9999.0,'11111222,11111222,99999999' 
ADCP,ioos:station:wmo:42890:1,2012-09-02T20:54:00Z,27.6250,-90.4410,15.2,109.0,49.6,-9999.0,'11111222,11111222,99999999' 
ADCP,ioos:station:wmo:42890:1,2012-09-02T21:14:00Z,27.6250,-90.4410,15.2,109.0,44.7,-9999.0,'11111222,11111222,99999999' 
ADCP,ioos:station:wmo:42890:1,2012-09-02T21:34:00Z,27.6250,-90.4410,15.2,109.0,37.1,-9999.0,'11111222,11111222,99999999' 
ADCP,ioos:station:wmo:42890:1,2012-09-02T21:54:00Z,27.6250,-90.4410,15.2,111.0,31.8,-9999.0,'11111222,11111222,99999999' 
ADCP,ioos:station:wmo:42890:1,2012-09-02T22:14:00Z,27.6250,-90.4410,15.2,111.0,45.4,-9999.0,'11111222,11111222,99999999' 
ADCP,ioos:station:wmo:42890:1,2012-09-02T22:34:00Z,27.6250,-90.4410,15.2,108.0,50.7,-9999.0,'11111222,11111222,99999999' 
ADCP,ioos:station:wmo:42890:1,2012-09-02T22:54:00Z,27.6250,-90.4410,15.2,110.0,49.3,-9999.0,'11111222,11111222,99999999' 
ADCP,ioos:station:wmo:42890:1,2012-09-02T23:14:00Z,27.6250,-90.4410,15.2,111.0,46.7,-9999.0,'11111222,11111222,99999999' 
ADCP,ioos:station:wmo:42890:1,2012-09-02T23:34:00Z,27.6250,-90.4410,15.2,114.0,43.9,-9999.0,'11111222,11111222,99999999' 
ADCP,ioos:station:wmo:42890:1,2012-09-02T23:54:00Z,27.6250,-90.4410,15.2,116.0,43.4,-9999.0,'11111222,11111222,99999999' 
ADCP,ioos:station:wmo:42890:1,2012-09-03T00:14:00Z,27.6250,-90.4410,15.2,116.0,48.3,-9999.0,'11111222,11111222,99999999' 
ADCP,ioos:station:wmo:42890:1,2012-09-03T00:34:00Z,27.6250,-90.4410,15.2,120.0,40.1,-9999.0,'11111222,11111222,99999999' 
ADCP,ioos:station:wmo:42890:1,2012-09-03T00:54:00Z,27.6250,-90.4410,15.2,133.0,47.2,-9999.0,'11111222,11111222,99999999' 
ADCP,ioos:station:wmo:42890:1,2012-09-03T01:14:00Z,27.6250,-90.4410,15.2,134.0,43.6,-9999.0,'11111222,11111222,99999999' 
ADCP,ioos:station:wmo:42890:1,2012-09-03T01:34:00Z,27.6250,-90.4410,15.2,133.0,43.4,-9999.0,'11111222,11111222,99999999' 
ADCP,ioos:station:wmo:42890:1,2012-09-03T01:54:00Z,27.6250,-90.4410,15.2,131.0,40.0,-9999.0,'11111222,11111222,99999999' 
ADCP,ioos:station:wmo:42890:1,2012-09-03T02:14:00Z,27.6250,-90.4410,15.2,134.0,37.2,-9999.0,'11111222,11111222,99999999' 
ADCP,ioos:station:wmo:42890:1,2012-09-03T02:34:00Z,27.6250,-90.4410,15.2,137.0,33.7,-9999.0,'11111222,11111222,99999999' 
ADCP,ioos:station:wmo:42890:1,2012-09-03T02:54:00Z,27.6250,-90.4410,15.2,147.0,27.4,-9999.0,'11111222,11111222,99999999' 
ADCP,ioos:station:wmo:42890:1,2012-09-03T03:14:00Z,27.6250,-90.4410,15.2,145.0,31.7,-9999.0,'11111222,11111222,99999999' 
ADCP,ioos:station:wmo:42890:1,2012-09-03T03:34:00Z,27.6250,-90.4410,15.2,148.0,28.3,-9999.0,'11111222,11111222,99999999' 
ADCP,ioos:station:wmo:42890:1,2012-09-03T03:54:00Z,27.6250,-90.4410,15.2,148.0,25.5,-9999.0,'11111222,11111222,99999999' 
ADCP,ioos:station:wmo:42890:1,2012-09-03T04:14:00Z,27.6250,-90.4410,15.2,138.0,26.2,-9999.0,'11111222,11111222,99999999' 
ADCP,ioos:station:wmo:42890:1,2012-09-03T04:34:00Z,27.6250,-90.4410,15.2,135.0,25.6,-9999.0,'11111222,11111222,99999999' 
ADCP,ioos:station:wmo:42890:1,2012-09-03T04:54:00Z,27.6250,-90.4410,15.2,136.0,22.8,-9999.0,'11111222,11111222,99999999' 
ADCP,ioos:station:wmo:42890:1,2012-09-03T05:14:00Z,27.6250,-90.4410,15.2,144.0,16.5,-9999.0,'11111222,11111222,99999999' 
ADCP,ioos:station:wmo:42890:1,2012-09-03T05:34:00Z,27.6250,-90.4410,15.2,149.0,15.3,-9999.0,'11111222,11111222,99999999' 
ADCP,ioos:station:wmo:42890:1,2012-09-03T05:54:00Z,27.6250,-90.4410,15.2,140.0,16.5,-9999.0,'11111222,11111222,99999999' 
ADCP,ioos:station:wmo:42890:1,2012-09-03T06:14:00Z,27.6250,-90.4410,15.2,140.0,14.0,-9999.0,'11111222,11111222,99999999' 
ADCP,ioos:station:wmo:42890:1,2012-09-03T06:34:00Z,27.6250,-90.4410,15.2,128.0,17.5,-9999.0,'11111222,11111222,99999999' 
ADCP,ioos:station:wmo:42890:1,2012-09-03T06:54:00Z,27.6250,-90.4410,15.2,132.0,15.4,-9999.0,'11111222,11111222,99999999' 
ADCP,ioos:station:wmo:42890:1,2012-09-03T07:14:00Z,27.6250,-90.4410,15.2,126.0,17.3,-9999.0,'11111222,11111222,99999999' 
ADCP,ioos:station:wmo:42890:1,2012-09-03T07:34:00Z,27.6250,-90.4410,15.2,113.0,19.9,-9999.0,'11111222,11111222,99999999' 
ADCP,ioos:station:wmo:42890:1,2012-09-03T07:54:00Z,27.6250,-90.4410,15.2,102.0,23.6,-9999.0,'11111222,11111222,99999999' 
ADCP,ioos:station:wmo:42890:1,2012-09-03T08:14:00Z,27.6250,-90.4410,15.2,104.0,21.6,-9999.0,'11111222,11111222,99999999' 
ADCP,ioos:station:wmo:42890:1,2012-09-03T08:34:00Z,27.6250,-90.4410,15.2,105.0,20.8,-9999.0,'11111222,11111222,99999999' 
ADCP,ioos:station:wmo:42890:1,2012-09-03T08:54:00Z,27.6250,-90.4410,15.2,104.0,22.3,-9999.0,'11111222,11111222,99999999' 
ADCP,ioos:station:wmo:42890:1,2012-09-03T09:14:00Z,27.6250,-90.4410,15.2,101.0,23.2,-9999.0,'11111222,11111222,99999999' 
ADCP,ioos:station:wmo:42890:1,2012-09-03T09:34:00Z,27.6250,-90.4410,15.2,94.0,24.7,-9999.0,'11111222,11111222,99999999' 
ADCP,ioos:station:wmo:42890:1,2012-09-03T09:54:00Z,27.6250,-90.4410,15.2,92.0,24.1,-9999.0,'11111222,11111222,99999999' 
ADCP,ioos:station:wmo:42890:1,2012-09-03T10:14:00Z,27.6250,-90.4410,15.2,90.0,25.7,-9999.0,'11111222,11111222,99999999' 
ADCP,ioos:station:wmo:42890:1,2012-09-03T10:34:00Z,27.6250,-90.4410,15.2,89.0,25.8,-9999.0,'11111222,11111222,99999999' 
ADCP,ioos:station:wmo:42890:1,2012-09-03T10:54:00Z,27.6250,-90.4410,15.2,90.0,27.6,-9999.0,'11111222,11111222,99999999' 
ADCP,ioos:station:wmo:42890:1,2012-09-03T11:14:00Z,27.6250,-90.4410,15.2,87.0,33.9,-9999.0,'11111222,11111222,99999999' 
ADCP,ioos:station:wmo:42890:1,2012-09-03T11:34:00Z,27.6250,-90.4410,15.2,83.0,32.7,-9999.0,'11111222,11111222,99999999' 
ADCP,ioos:station:wmo:42890:1,2012-09-03T11:54:00Z,27.6250,-90.4410,15.2,80.0,32.7,-9999.0,'11111222,11111222,99999999' 
ADCP,ioos:station:wmo:42890:1,2012-09-03T12:14:00Z,27.6250,-90.4410,15.2,82.0,34.4,-9999.0,'11111222,11111222,99999999' 
ADCP,ioos:station:wmo:42890:1,2012-09-03T12:34:00Z,27.6250,-90.4410,15.2,83.0,34.8,-9999.0,'11111222,11111222,99999999' 
ADCP,ioos:station:wmo:42890:1,2012-09-03T12:54:00Z,27.6250,-90.4410,15.2,85.0,37.7,-9999.0,'11111222,11111222,99999999' 
ADCP,ioos:station:wmo:42890:1,2012-09-03T13:14:00Z,27.6250,-90.4410,15.2,88.0,37.6,-9999.0,'11111222,11111222,99999999' 
ADCP,ioos:station:wmo:42890:1,2012-09-03T13:34:00Z,27.6250,-90.4410,15.2,90.0,38.3,-9999.0,'11111222,11111222,99999999' 
ADCP,ioos:station:wmo:42890:1,2012-09-03T13:54:00Z,27.6250,-90.4410,15.2,97.0,39.8,-9999.0,'11111222,11111222,99999999' 
ADCP,ioos:station:wmo:42890:1,2012-09-03T14:14:00Z,27.6250,-90.4410,15.2,98.0,42.1,-9999.0,'11111222,11111222,99999999' 
ADCP,ioos:station:wmo:42890:1,2012-09-03T14:34:00Z,27.6250,-90.4410,15.2,98.0,42.9,-9999.0,'11111222,11111222,99999999' 
ADCP,ioos:station:wmo:42890:1,2012-09-03T14:54:00Z,27.6250,-90.4410,15.2,98.0,37.9,-9999.0,'11111222,11111222,99999999' 
ADCP,ioos:station:wmo:42890:1,2012-09-03T15:14:00Z,27.6250,-90.4410,15.2,109.0,32.9,-9999.0,'11111222,11111222,99999999' 
ADCP,ioos:station:wmo:42890:1,2012-09-03T15:34:00Z,27.6250,-90.4410,15.2,108.0,36.3,-9999.0,'11111222,11111222,99999999' 
ADCP,ioos:station:wmo:42890:1,2012-09-03T15:54:00Z,27.6250,-90.4410,15.2,105.0,38.8,-9999.0,'11111222,11111222,99999999' 
ADCP,ioos:station:wmo:42890:1,2012-09-03T16:14:00Z,27.6250,-90.4410,15.2,105.0,50.2,-9999.0,'11111222,11111222,99999999' 
ADCP,ioos:station:wmo:42890:1,2012-09-03T16:34:00Z,27.6250,-90.4410,15.2,104.0,48.8,-9999.0,'11111222,11111222,99999999' 
ADCP,ioos:station:wmo:42890:1,2012-09-03T16:54:00Z,27.6250,-90.4410,15.2,105.0,39.1,-9999.0,'11111222,11111222,99999999' 